Retour au catalogue

TIANYI-26

ActifScienceSSO
NORAD 56866·PAYLOAD·🇨🇳 China
Ce nom de satellite n'a pas encore été confirmé par des sources officielles.

Lancé Jun 7, 2023 depuis Jiuquan Satellite Launch Center

Loading…

Prochains Passages (prochaines 24 heures)

TLE

FraisSource: Space-Track

Époque: Sep 14, 2026, 14:47 UTC

1 56866U 23081W   26257.61618415  .00005416  00000-0  21412-3 0  9998
2 56866  97.2805 318.8204 0011836  61.3154 298.9273 15.25830028181665

Suivez TIANYI-26 en temps réel avec AllMySat

Download on the App Store